Location: Camaret
(48.2753°N, 4.5961°W)
Time: 01:20:12
(UTC+00:00)

Cosmos 2227 Rocket - Pass Details

Date: 29 October 2020
Orbit: 839 x 845 km, 71.0° (Epoch: 26 November)

Event Time Altitude Azimuth Distance (km) Brightness Sun altitude
Rises 18:33:29 0° 329° (NNW) 3,408 5.7 -15.4°
Reaches altitude 10° 18:35:58 10° 326° (NNW) 2,470 5.0 -15.8°
Maximum altitude 18:41:32 61° 248° (WSW) 956 2.7 -16.8°
Drops below altitude 10° 18:47:05 10° 169° (S) 2,458 4.5 -17.7°
Sets 18:49:32 0° 166° (SSE) 3,389 5.2 -18.1°
